Wetterdaten: Montag, 23.07.2012
Datum Zeit Temperatur Luftfeuchte Regen Wind Richtung Richtung Taupunkt Windchill Windben
23.07.2012 00:00 6,2 C 87 % 0,0 l/m 0,0 km/h (0 Bft) O-NO 67 4,2 C 5,5 C 0,0 km/h (0 Bft)
23.07.2012 00:05 6,6 C 88 % 0,0 l/m 0,0 km/h (0 Bft) NW 315 4,8 C 5,5 C 0,0 km/h (0 Bft)
23.07.2012 00:10 6,6 C 88 % 0,0 l/m 0,0 km/h (0 Bft) N 360 4,8 C 5,6 C 0,0 km/h (0 Bft)
23.07.2012 00:15 6,3 C 88 % 0,0 l/m 0,0 km/h (0 Bft) W-SW 247 4,5 C 5,6 C 0,0 km/h (0 Bft)
23.07.2012 00:20 6,1 C 88 % 0,0 l/m 0,0 km/h (0 Bft) N-NO 22 4,3 C 5,5 C 0,0 km/h (0 Bft)
23.07.2012 00:25 6,1 C 89 % 0,0 l/m 0,0 km/h (0 Bft) W-NW 292 4,4 C 5,5 C 0,0 km/h (0 Bft)
23.07.2012 00:30 6,1 C 89 % 0,0 l/m 0,0 km/h (0 Bft) N-NO 22 4,4 C 5,4 C 0,0 km/h (0 Bft)
23.07.2012 00:35 5,9 C 89 % 0,0 l/m 0,0 km/h (0 Bft) W-SW 247 4,2 C 5,3 C 0,0 km/h (0 Bft)
23.07.2012 00:40 5,8 C 89 % 0,0 l/m 0,0 km/h (0 Bft) N-NO 22 4,1 C 5,2 C 0,0 km/h (0 Bft)
23.07.2012 00:45 6,1 C 89 % 0,0 l/m 0,0 km/h (0 Bft) NO 45 4,4 C 5,2 C 0,0 km/h (0 Bft)
23.07.2012 00:50 5,9 C 90 % 0,0 l/m 0,0 km/h (0 Bft) W 270 4,4 C 5,3 C 0,0 km/h (0 Bft)
23.07.2012 00:55 5,8 C 89 % 0,0 l/m 0,0 km/h (0 Bft) O-SO 112 4,1 C 5,2 C 0,0 km/h (0 Bft)
23.07.2012 01:00 5,8 C 90 % 0,0 l/m 0,0 km/h (0 Bft) O-NO 67 4,3 C 5,2 C 0,0 km/h (0 Bft)
23.07.2012 01:05 5,7 C 89 % 0,0 l/m 0,0 km/h (0 Bft) O-SO 112 4,0 C 5,1 C 0,0 km/h (0 Bft)
23.07.2012 01:10 5,7 C 90 % 0,0 l/m 0,0 km/h (0 Bft) SO 135 4,2 C 5,1 C 0,0 km/h (0 Bft)
23.07.2012 01:15 5,7 C 90 % 0,0 l/m 0,0 km/h (0 Bft) N-NW 337 4,2 C 5,1 C 0,0 km/h (0 Bft)
23.07.2012 01:20 5,9 C 90 % 0,0 l/m 0,0 km/h (0 Bft) N 360 4,4 C 5,2 C 0,0 km/h (0 Bft)
23.07.2012 01:25 5,7 C 90 % 0,0 l/m 0,0 km/h (0 Bft) N-NO 22 4,2 C 5,2 C 0,0 km/h (0 Bft)
23.07.2012 01:30 5,7 C 90 % 0,0 l/m 0,0 km/h (0 Bft) S-SW 202 4,2 C 5,2 C 0,0 km/h (0 Bft)
23.07.2012 01:35 5,7 C 91 % 0,0 l/m 0,0 km/h (0 Bft) N 360 4,3 C 5,2 C 0,0 km/h (0 Bft)
23.07.2012 01:40 5,9 C 91 % 0,0 l/m 0,0 km/h (0 Bft) NO 45 4,5 C 5,2 C 0,0 km/h (0 Bft)
23.07.2012 01:45 5,5 C 91 % 0,0 l/m 0,0 km/h (0 Bft) N-NO 22 4,2 C 5,1 C 0,0 km/h (0 Bft)
23.07.2012 01:50 5,4 C 91 % 0,0 l/m 0,0 km/h (0 Bft) W-NW 292 4,1 C 5,0 C 0,0 km/h (0 Bft)
23.07.2012 01:55 5,4 C 91 % 0,0 l/m 0,0 km/h (0 Bft) N 360 4,1 C 4,8 C 0,0 km/h (0 Bft)
23.07.2012 02:00 5,3 C 91 % 0,0 l/m 0,0 km/h (0 Bft) W-SW 247 4,0 C 4,7 C 0,0 km/h (0 Bft)
23.07.2012 02:05 5,0 C 91 % 0,0 l/m 0,0 km/h (0 Bft) N 360 3,7 C 4,4 C 0,0 km/h (0 Bft)
23.07.2012 02:11 4,9 C 91 % 0,0 l/m 0,0 km/h (0 Bft) N 0 3,6 C 4,3 C 0,0 km/h (0 Bft)
23.07.2012 02:15 5,3 C 91 % 0,0 l/m 0,0 km/h (0 Bft) N 0 4,0 C 4,3 C 0,0 km/h (0 Bft)
23.07.2012 02:20 5,3 C 91 % 0,0 l/m 0,0 km/h (0 Bft) N-NO 22 4,0 C 4,3 C 0,0 km/h (0 Bft)
23.07.2012 02:25 5,1 C 91 % 0,0 l/m 0,0 km/h (0 Bft) S-SW 202 3,8 C 4,4 C 0,0 km/h (0 Bft)
23.07.2012 02:30 5,0 C 91 % 0,0 l/m 0,0 km/h (0 Bft) S 180 3,7 C 4,3 C 0,0 km/h (0 Bft)
23.07.2012 02:31 5,0 C 91 % 0,0 l/m 0,0 km/h (0 Bft) S 180 3,7 C 4,3 C 0,0 km/h (0 Bft)
23.07.2012 02:32 5,0 C 91 % 0,0 l/m 0,0 km/h (0 Bft) S 180 3,7 C 4,3 C 0,0 km/h (0 Bft)
23.07.2012 02:33 5,0 C 91 % 0,0 l/m 0,0 km/h (0 Bft) S 180 3,7 C 4,3 C 0,0 km/h (0 Bft)
23.07.2012 02:34 5,0 C 91 % 0,0 l/m 0,0 km/h (0 Bft) S 180 3,7 C 4,3 C 0,0 km/h (0 Bft)
23.07.2012 02:36 4,7 C 91 % 0,0 l/m 0,0 km/h (0 Bft) SW 225 3,4 C 4,0 C 0,0 km/h (0 Bft)
23.07.2012 02:40 5,1 C 91 % 0,0 l/m 0,0 km/h (0 Bft) W-NW 292 3,8 C 4,0 C 0,0 km/h (0 Bft)
23.07.2012 02:45 4,7 C 91 % 0,0 l/m 0,0 km/h (0 Bft) S 180 3,4 C 4,1 C 0,0 km/h (0 Bft)
23.07.2012 02:50 4,5 C 91 % 0,0 l/m 0,0 km/h (0 Bft) SO 135 3,2 C 4,0 C 0,0 km/h (0 Bft)
23.07.2012 02:55 4,8 C 92 % 0,0 l/m 0,0 km/h (0 Bft) N 360 3,6 C 3,8 C 0,0 km/h (0 Bft)
23.07.2012 03:00 5,0 C 91 % 0,0 l/m 0,0 km/h (0 Bft) N 360 3,7 C 3,9 C 0,0 km/h (0 Bft)
23.07.2012 03:05 5,1 C 92 % 0,0 l/m 0,0 km/h (0 Bft) S-SW 202 3,9 C 4,1 C 0,0 km/h (0 Bft)
23.07.2012 03:10 4,7 C 92 % 0,0 l/m 0,0 km/h (0 Bft) SO 135 3,5 C 4,0 C 0,0 km/h (0 Bft)
23.07.2012 03:15 4,3 C 92 % 0,0 l/m 0,0 km/h (0 Bft) N-NO 22 3,1 C 3,6 C 0,0 km/h (0 Bft)
23.07.2012 03:20 4,5 C 92 % 0,0 l/m 0,0 km/h (0 Bft) N-NO 22 3,3 C 3,6 C 0,0 km/h (0 Bft)
23.07.2012 03:25 4,3 C 92 % 0,0 l/m 0,0 km/h (0 Bft) W-SW 247 3,1 C 3,6 C 0,0 km/h (0 Bft)
23.07.2012 03:30 4,3 C 92 % 0,0 l/m 0,0 km/h (0 Bft) N-NO 22 3,1 C 3,6 C 0,0 km/h (0 Bft)
23.07.2012 03:35 4,2 C 92 % 0,0 l/m 0,0 km/h (0 Bft) NO 45 3,0 C 3,5 C 0,0 km/h (0 Bft)
23.07.2012 03:40 4,4 C 92 % 0,0 l/m 0,0 km/h (0 Bft) N-NW 337 3,2 C 3,5 C 0,0 km/h (0 Bft)
23.07.2012 03:45 4,1 C 92 % 0,0 l/m 0,0 km/h (0 Bft) NW 315 2,9 C 3,4 C 0,0 km/h (0 Bft)
23.07.2012 03:50 4,0 C 92 % 0,0 l/m 0,0 km/h (0 Bft) SW 225 2,8 C 3,4 C 0,0 km/h (0 Bft)
23.07.2012 03:55 3,8 C 92 % 0,0 l/m 0,0 km/h (0 Bft) N-NW 337 2,6 C 3,3 C 0,0 km/h (0 Bft)
23.07.2012 04:00 4,0 C 92 % 0,0 l/m 0,0 km/h (0 Bft) N-NO 22 2,8 C 3,3 C 0,0 km/h (0 Bft)
23.07.2012 04:05 3,9 C 92 % 0,0 l/m 0,0 km/h (0 Bft) NO 45 2,7 C 3,2 C 0,0 km/h (0 Bft)
23.07.2012 04:10 3,6 C 92 % 0,0 l/m 0,0 km/h (0 Bft) S-SO 157 2,4 C 3,1 C 0,0 km/h (0 Bft)
23.07.2012 04:15 3,9 C 92 % 0,0 l/m 0,0 km/h (0 Bft) W-SW 247 2,7 C 3,0 C 0,0 km/h (0 Bft)
23.07.2012 04:20 3,8 C 92 % 0,0 l/m 0,0 km/h (0 Bft) W 270 2,6 C 3,0 C 0,0 km/h (0 Bft)
23.07.2012 04:25 3,8 C 92 % 0,0 l/m 0,0 km/h (0 Bft) N 360 2,6 C 2,9 C 0,0 km/h (0 Bft)
23.07.2012 04:30 3,5 C 92 % 0,0 l/m 0,0 km/h (0 Bft) N 360 2,3 C 2,8 C 0,0 km/h (0 Bft)
23.07.2012 04:35 3,6 C 92 % 0,0 l/m 0,0 km/h (0 Bft) W 270 2,4 C 2,8 C 0,0 km/h (0 Bft)
23.07.2012 04:40 3,6 C 92 % 0,0 l/m 0,0 km/h (0 Bft) N-NW 337 2,4 C 2,9 C 0,0 km/h (0 Bft)
23.07.2012 04:45 3,3 C 92 % 0,0 l/m 0,0 km/h (0 Bft) N-NW 337 2,1 C 2,7 C 0,0 km/h (0 Bft)
23.07.2012 04:50 3,3 C 92 % 0,0 l/m 0,0 km/h (0 Bft) N-NW 337 2,1 C 2,7 C 0,0 km/h (0 Bft)
23.07.2012 04:55 3,4 C 92 % 0,0 l/m 0,0 km/h (0 Bft) W-NW 292 2,2 C 2,7 C 0,0 km/h (0 Bft)
23.07.2012 05:00 3,4 C 92 % 0,0 l/m 0,0 km/h (0 Bft) W-SW 247 2,2 C 2,7 C 0,0 km/h (0 Bft)
23.07.2012 05:05 3,3 C 92 % 0,0 l/m 0,0 km/h (0 Bft) W-NW 292 2,1 C 2,6 C 0,0 km/h (0 Bft)
23.07.2012 05:10 3,2 C 92 % 0,0 l/m 0,0 km/h (0 Bft) W 270 2,0 C 2,6 C 0,0 km/h (0 Bft)
23.07.2012 05:15 3,1 C 92 % 0,0 l/m 0,0 km/h (0 Bft) W-NW 292 1,9 C 2,4 C 0,0 km/h (0 Bft)
23.07.2012 05:20 3,2 C 92 % 0,0 l/m 0,0 km/h (0 Bft) N-NO 22 2,0 C 2,3 C 0,0 km/h (0 Bft)
23.07.2012 05:25 3,2 C 92 % 0,0 l/m 0,0 km/h (0 Bft) N-NO 22 2,0 C 2,5 C 0,0 km/h (0 Bft)
23.07.2012 05:30 3,3 C 92 % 0,0 l/m 0,0 km/h (0 Bft) S 180 2,1 C 2,5 C 0,0 km/h (0 Bft)
23.07.2012 05:35 3,2 C 92 % 0,0 l/m 0,0 km/h (0 Bft) O-NO 67 2,0 C 2,5 C 0,0 km/h (0 Bft)
23.07.2012 05:40 3,2 C 92 % 0,0 l/m 0,0 km/h (0 Bft) N-NO 22 2,0 C 2,5 C 0,0 km/h (0 Bft)
23.07.2012 05:45 3,1 C 92 % 0,0 l/m 0,0 km/h (0 Bft) W 270 1,9 C 2,6 C 0,0 km/h (0 Bft)
23.07.2012 05:50 3,1 C 92 % 0,0 l/m 0,0 km/h (0 Bft) W-NW 292 1,9 C 2,5 C 0,0 km/h (0 Bft)
23.07.2012 05:55 3,0 C 92 % 0,0 l/m 0,0 km/h (0 Bft) NW 315 1,8 C 2,5 C 0,0 km/h (0 Bft)
23.07.2012 06:00 3,2 C 92 % 0,0 l/m 0,0 km/h (0 Bft) NW 315 2,0 C 2,6 C 0,0 km/h (0 Bft)
23.07.2012 06:05 3,4 C 92 % 0,0 l/m 0,0 km/h (0 Bft) W 270 2,2 C 2,7 C 0,0 km/h (0 Bft)
23.07.2012 06:10 3,5 C 92 % 0,0 l/m 0,0 km/h (0 Bft) N 360 2,3 C 3,1 C 0,0 km/h (0 Bft)
23.07.2012 06:15 3,4 C 92 % 0,0 l/m 0,0 km/h (0 Bft) NW 315 2,2 C 4,1 C 0,0 km/h (0 Bft)
23.07.2012 06:20 3,6 C 92 % 0,0 l/m 0,0 km/h (0 Bft) W 270 2,4 C 4,2 C 0,0 km/h (0 Bft)
23.07.2012 06:25 3,8 C 93 % 0,0 l/m 0,0 km/h (0 Bft) S 180 2,8 C 3,8 C 0,0 km/h (0 Bft)
23.07.2012 06:30 3,8 C 93 % 0,0 l/m 0,0 km/h (0 Bft) W-NW 292 2,8 C 3,6 C 0,0 km/h (0 Bft)
23.07.2012 06:35 4,1 C 92 % 0,0 l/m 0,0 km/h (0 Bft) W-NW 292 2,9 C 4,2 C 0,0 km/h (0 Bft)
23.07.2012 06:40 4,3 C 92 % 0,0 l/m 0,0 km/h (0 Bft) N 360 3,1 C 5,2 C 0,0 km/h (0 Bft)
23.07.2012 06:45 7,0 C 91 % 0,0 l/m 0,0 km/h (0 Bft) W-NW 292 5,6 C 7,4 C 0,0 km/h (0 Bft)
23.07.2012 06:50 8,3 C 90 % 0,0 l/m 0,2 km/h (0 Bft) SW 225 6,8 C 8,6 C 1,6 km/h (1 Bft)
23.07.2012 06:55 9,6 C 89 % 0,0 l/m 0,2 km/h (0 Bft) W-SW 247 7,9 C 10,0 C 0,0 km/h (0 Bft)
23.07.2012 07:00 10,8 C 88 % 0,0 l/m 0,2 km/h (0 Bft) W 270 8,9 C 10,7 C 0,0 km/h (0 Bft)
23.07.2012 07:05 10,3 C 86 % 0,0 l/m 1,1 km/h (1 Bft) N 360 8,1 C 11,4 C 2,3 km/h (1 Bft)
23.07.2012 07:10 10,6 C 86 % 0,0 l/m 1,4 km/h (1 Bft) W-NW 292 8,4 C 11,9 C 7,1 km/h (2 Bft)
23.07.2012 07:15 11,5 C 84 % 0,0 l/m 2,1 km/h (1 Bft) W 270 8,9 C 12,2 C 0,0 km/h (0 Bft)
23.07.2012 07:20 11,9 C 79 % 0,0 l/m 2,9 km/h (1 Bft) W-NW 292 8,4 C 12,5 C 2,9 km/h (1 Bft)
23.07.2012 07:25 12,5 C 73 % 0,0 l/m 3,4 km/h (1 Bft) W 270 7,8 C 12,7 C 2,3 km/h (1 Bft)
23.07.2012 07:30 13,2 C 70 % 0,0 l/m 3,4 km/h (1 Bft) W-NW 292 7,9 C 13,0 C 7,4 km/h (2 Bft)
23.07.2012 07:35 13,6 C 68 % 0,0 l/m 3,4 km/h (1 Bft) W-NW 292 7,8 C 13,3 C 5,5 km/h (1 Bft)
23.07.2012 07:40 14,1 C 65 % 0,0 l/m 3,4 km/h (1 Bft) NW 315 7,6 C 13,6 C 3,9 km/h (1 Bft)
23.07.2012 07:45 14,1 C 63 % 0,0 l/m 3,5 km/h (1 Bft) W-SW 247 7,2 C 13,8 C 4,5 km/h (1 Bft)
23.07.2012 07:50 14,7 C 62 % 0,0 l/m 3,2 km/h (1 Bft) W-NW 292 7,5 C 14,3 C 6,9 km/h (2 Bft)
23.07.2012 07:55 14,8 C 61 % 0,0 l/m 2,9 km/h (1 Bft) W 270 7,4 C 14,5 C 3,7 km/h (1 Bft)
23.07.2012 08:00 14,8 C 60 % 0,0 l/m 3,4 km/h (1 Bft) N-NW 337 7,1 C 14,5 C 7,6 km/h (2 Bft)
23.07.2012 08:05 15,6 C 59 % 0,0 l/m 3,7 km/h (1 Bft) W-NW 292 7,6 C 14,9 C 5,5 km/h (1 Bft)
23.07.2012 08:10 15,4 C 59 % 0,0 l/m 3,5 km/h (1 Bft) W-SW 247 7,4 C 15,0 C 2,3 km/h (1 Bft)
23.07.2012 08:15 15,3 C 59 % 0,0 l/m 4,0 km/h (1 Bft) W-SW 247 7,3 C 15,3 C 6,4 km/h (2 Bft)
23.07.2012 08:20 16,1 C 56 % 0,0 l/m 4,3 km/h (1 Bft) W 270 7,3 C 15,3 C 8,7 km/h (2 Bft)
23.07.2012 08:25 15,5 C 57 % 0,0 l/m 5,5 km/h (1 Bft) W 270 7,0 C 15,2 C 7,6 km/h (2 Bft)
23.07.2012 08:30 15,6 C 57 % 0,0 l/m 5,6 km/h (1 Bft) W-NW 292 7,1 C 15,2 C 9,3 km/h (2 Bft)
23.07.2012 08:35 15,3 C 56 % 0,0 l/m 6,1 km/h (2 Bft) NW 315 6,9 C 15,0 C 8,4 km/h (2 Bft)
23.07.2012 08:40 14,4 C 58 % 0,0 l/m 6,4 km/h (2 Bft) W-NW 292 7,3 C 14,8 C 11,6 km/h (2 Bft)
23.07.2012 08:45 14,0 C 57 % 0,0 l/m 6,1 km/h (2 Bft) N 360 7,4 C 15,0 C 8,4 km/h (2 Bft)
23.07.2012 08:50 14,0 C 56 % 0,0 l/m 6,1 km/h (2 Bft) W 270 7,4 C 15,1 C 10,8 km/h (2 Bft)
23.07.2012 08:55 13,9 C 57 % 0,0 l/m 6,3 km/h (2 Bft) W 270 7,7 C 15,3 C 6,6 km/h (2 Bft)
23.07.2012 09:00 13,8 C 55 % 0,0 l/m 6,4 km/h (2 Bft) W 270 7,0 C 15,6 C 8,7 km/h (2 Bft)
23.07.2012 09:05 13,9 C 55 % 0,0 l/m 7,4 km/h (2 Bft) W 270 7,1 C 15,1 C 14,0 km/h (3 Bft)
23.07.2012 09:10 14,0 C 57 % 0,0 l/m 7,7 km/h (2 Bft) W-NW 292 7,8 C 14,8 C 12,9 km/h (3 Bft)
23.07.2012 09:15 14,0 C 55 % 0,0 l/m 7,9 km/h (2 Bft) W-NW 292 7,1 C 15,1 C 10,6 km/h (2 Bft)
23.07.2012 09:20 14,2 C 55 % 0,0 l/m 7,1 km/h (2 Bft) W-SW 247 7,5 C 15,7 C 14,5 km/h (3 Bft)
23.07.2012 09:25 14,6 C 56 % 0,0 l/m 5,8 km/h (2 Bft) W-SW 247 7,8 C 16,8 C 9,0 km/h (2 Bft)
23.07.2012 09:30 14,7 C 57 % 0,0 l/m 5,5 km/h (1 Bft) W-SW 247 8,9 C 16,9 C 3,5 km/h (1 Bft)
23.07.2012 09:35 14,7 C 56 % 0,0 l/m 6,1 km/h (2 Bft) W 270 8,0 C 17,2 C 11,7 km/h (2 Bft)
23.07.2012 09:40 14,9 C 56 % 0,0 l/m 6,3 km/h (2 Bft) W 270 8,3 C 17,1 C 8,2 km/h (2 Bft)
23.07.2012 09:45 14,9 C 55 % 0,0 l/m 6,8 km/h (2 Bft) S 180 8,0 C 17,0 C 8,2 km/h (2 Bft)
23.07.2012 09:50 15,1 C 55 % 0,0 l/m 6,6 km/h (2 Bft) W-NW 292 8,4 C 17,2 C 17,5 km/h (3 Bft)
23.07.2012 09:55 15,3 C 55 % 0,0 l/m 6,8 km/h (2 Bft) W 270 8,9 C 17,5 C 7,1 km/h (2 Bft)
23.07.2012 10:00 15,4 C 53 % 0,0 l/m 6,1 km/h (2 Bft) SO 135 8,6 C 18,1 C 9,7 km/h (2 Bft)
23.07.2012 10:05 15,6 C 56 % 0,0 l/m 5,6 km/h (1 Bft) W-NW 292 9,1 C 17,8 C 9,5 km/h (2 Bft)
23.07.2012 10:10 15,3 C 58 % 0,0 l/m 6,0 km/h (2 Bft) O-SO 112 8,2 C 17,7 C 3,4 km/h (1 Bft)
23.07.2012 10:15 14,9 C 59 % 0,0 l/m 5,6 km/h (1 Bft) N-NW 337 7,3 C 17,5 C 7,9 km/h (2 Bft)
23.07.2012 10:20 15,2 C 60 % 0,0 l/m 5,6 km/h (1 Bft) S-SW 202 8,4 C 16,4 C 9,5 km/h (2 Bft)
23.07.2012 10:25 15,9 C 60 % 0,0 l/m 5,8 km/h (2 Bft) N-NW 337 8,7 C 16,6 C 8,2 km/h (2 Bft)
23.07.2012 10:30 15,5 C 59 % 0,0 l/m 6,0 km/h (2 Bft) N 360 7,9 C 17,1 C 10,6 km/h (2 Bft)
23.07.2012 10:35 16,0 C 60 % 0,0 l/m 5,6 km/h (1 Bft) O 90 8,8 C 17,1 C 6,1 km/h (2 Bft)
23.07.2012 10:40 15,9 C 60 % 0,0 l/m 5,8 km/h (2 Bft) W-NW 292 8,6 C 17,5 C 8,7 km/h (2 Bft)
23.07.2012 10:45 14,4 C 65 % 0,0 l/m 6,1 km/h (2 Bft) N-NW 337 7,9 C 15,9 C 7,1 km/h (2 Bft)
23.07.2012 10:50 14,9 C 63 % 0,0 l/m 6,6 km/h (2 Bft) W 270 7,9 C 15,3 C 11,7 km/h (2 Bft)
23.07.2012 10:55 15,0 C 62 % 0,0 l/m 6,6 km/h (2 Bft) N-NW 337 7,8 C 15,8 C 9,3 km/h (2 Bft)
23.07.2012 11:00 14,7 C 63 % 0,0 l/m 6,4 km/h (2 Bft) W-NW 292 7,7 C 15,5 C 4,0 km/h (1 Bft)
23.07.2012 11:05 15,3 C 61 % 0,0 l/m 6,8 km/h (2 Bft) N-NW 337 7,8 C 15,7 C 6,1 km/h (2 Bft)
23.07.2012 11:10 16,1 C 59 % 0,0 l/m 6,3 km/h (2 Bft) SW 225 8,1 C 16,9 C 8,2 km/h (2 Bft)
23.07.2012 11:15 15,5 C 59 % 0,0 l/m 6,6 km/h (2 Bft) W-SW 247 7,5 C 16,4 C 8,4 km/h (2 Bft)
23.07.2012 11:20 14,7 C 63 % 0,0 l/m 7,7 km/h (2 Bft) N 360 7,7 C 15,2 C 4,8 km/h (1 Bft)
23.07.2012 11:25 14,5 C 64 % 0,0 l/m 6,4 km/h (2 Bft) W 270 7,8 C 15,2 C 5,6 km/h (1 Bft)
23.07.2012 11:30 16,4 C 59 % 0,0 l/m 6,3 km/h (2 Bft) NW 315 8,6 C 16,2 C 10,1 km/h (2 Bft)
23.07.2012 11:35 16,6 C 58 % 0,0 l/m 6,4 km/h (2 Bft) W 270 8,4 C 17,2 C 12,9 km/h (3 Bft)
23.07.2012 11:40 16,4 C 56 % 0,0 l/m 7,4 km/h (2 Bft) W-SW 247 7,6 C 16,8 C 12,2 km/h (2 Bft)
23.07.2012 11:45 16,4 C 57 % 0,0 l/m 7,9 km/h (2 Bft) W 270 7,9 C 15,8 C 12,1 km/h (2 Bft)
23.07.2012 11:50 17,5 C 56 % 0,0 l/m 6,6 km/h (2 Bft) NW 315 8,8 C 17,3 C 15,4 km/h (3 Bft)
23.07.2012 11:55 17,9 C 51 % 0,0 l/m 7,6 km/h (2 Bft) W 270 7,8 C 18,2 C 7,6 km/h (2 Bft)
23.07.2012 12:00 16,3 C 56 % 0,0 l/m 8,7 km/h (2 Bft) N 360 7,5 C 17,1 C 17,9 km/h (3 Bft)
23.07.2012 12:05 16,7 C 55 % 0,0 l/m 7,4 km/h (2 Bft) W-NW 292 7,6 C 17,4 C 8,7 km/h (2 Bft)
23.07.2012 12:10 17,5 C 55 % 0,0 l/m 6,0 km/h (2 Bft) NW 315 8,5 C 18,2 C 8,4 km/h (2 Bft)
23.07.2012 12:15 15,9 C 58 % 0,0 l/m 7,4 km/h (2 Bft) W-SW 247 7,6 C 16,8 C 12,7 km/h (3 Bft)
23.07.2012 12:20 15,6 C 58 % 0,0 l/m 8,0 km/h (2 Bft) W 270 7,4 C 15,7 C 12,7 km/h (3 Bft)
23.07.2012 12:25 15,4 C 59 % 0,0 l/m 7,4 km/h (2 Bft) SW 225 7,4 C 15,9 C 12,7 km/h (3 Bft)
23.07.2012 12:30 17,1 C 57 % 0,0 l/m 6,8 km/h (2 Bft) W-SW 247 8,8 C 16,5 C 6,8 km/h (2 Bft)
23.07.2012 12:35 17,5 C 55 % 0,0 l/m 7,7 km/h (2 Bft) W-NW 292 8,4 C 17,2 C 7,7 km/h (2 Bft)
23.07.2012 12:40 16,2 C 57 % 0,0 l/m 7,1 km/h (2 Bft) W 270 7,7 C 17,2 C 11,4 km/h (2 Bft)
23.07.2012 12:45 15,9 C 58 % 0,0 l/m 6,8 km/h (2 Bft) NW 315 7,6 C 16,9 C 7,9 km/h (2 Bft)
23.07.2012 12:50 16,8 C 57 % 0,0 l/m 6,3 km/h (2 Bft) N 360 8,2 C 16,9 C 3,9 km/h (1 Bft)
23.07.2012 12:55 17,2 C 57 % 0,0 l/m 6,6 km/h (2 Bft) SO 135 8,6 C 17,4 C 8,9 km/h (2 Bft)
23.07.2012 13:00 18,6 C 53 % 0,0 l/m 7,2 km/h (2 Bft) NW 315 8,8 C 17,8 C 11,9 km/h (2 Bft)
23.07.2012 13:05 18,4 C 55 % 0,0 l/m 6,8 km/h (2 Bft) O-SO 112 9,2 C 19,1 C 7,4 km/h (2 Bft)
23.07.2012 13:10 19,3 C 50 % 0,0 l/m 6,1 km/h (2 Bft) W-NW 292 8,6 C 20,0 C 9,0 km/h (2 Bft)
23.07.2012 13:15 19,3 C 54 % 0,0 l/m 6,1 km/h (2 Bft) W-NW 292 9,8 C 20,5 C 7,7 km/h (2 Bft)
23.07.2012 13:20 18,3 C 52 % 0,0 l/m 6,9 km/h (2 Bft) W-NW 292 8,3 C 19,8 C 9,3 km/h (2 Bft)
23.07.2012 13:25 17,0 C 55 % 0,0 l/m 6,8 km/h (2 Bft) SW 225 7,9 C 18,4 C 9,0 km/h (2 Bft)
23.07.2012 13:30 17,9 C 55 % 0,0 l/m 6,6 km/h (2 Bft) W-NW 292 8,7 C 18,3 C 7,2 km/h (2 Bft)
23.07.2012 13:35 18,7 C 50 % 0,0 l/m 8,5 km/h (2 Bft) W-SW 247 8,1 C 17,9 C 10,5 km/h (2 Bft)
23.07.2012 13:40 18,8 C 50 % 0,0 l/m 10,0 km/h (2 Bft) W-SW 247 8,2 C 17,4 C 22,2 km/h (4 Bft)
23.07.2012 13:45 19,0 C 50 % 0,0 l/m 9,8 km/h (2 Bft) N 360 8,3 C 17,9 C 9,0 km/h (2 Bft)
23.07.2012 13:50 19,2 C 51 % 0,0 l/m 9,0 km/h (2 Bft) W-SW 247 8,8 C 18,8 C 15,8 km/h (3 Bft)
23.07.2012 13:55 19,6 C 49 % 0,0 l/m 8,2 km/h (2 Bft) SW 225 8,6 C 19,5 C 9,3 km/h (2 Bft)
23.07.2012 14:00 19,4 C 49 % 0,0 l/m 9,0 km/h (2 Bft) N-NW 337 8,4 C 19,3 C 15,1 km/h (3 Bft)
23.07.2012 14:05 19,3 C 50 % 0,0 l/m 9,7 km/h (2 Bft) W-NW 292 8,6 C 18,7 C 18,3 km/h (3 Bft)
23.07.2012 14:10 19,4 C 53 % 0,0 l/m 9,8 km/h (2 Bft) SW 225 9,6 C 18,8 C 22,4 km/h (4 Bft)
23.07.2012 14:15 19,6 C 50 % 0,0 l/m 9,2 km/h (2 Bft) S-SW 202 8,9 C 19,5 C 9,3 km/h (2 Bft)
23.07.2012 14:20 18,8 C 50 % 0,0 l/m 9,3 km/h (2 Bft) W-NW 292 8,2 C 19,4 C 7,9 km/h (2 Bft)
23.07.2012 14:25 19,4 C 50 % 0,0 l/m 10,0 km/h (2 Bft) W-NW 292 8,7 C 18,8 C 7,4 km/h (2 Bft)
23.07.2012 14:30 19,7 C 50 % 0,0 l/m 8,9 km/h (2 Bft) O-SO 112 9,0 C 19,3 C 5,1 km/h (1 Bft)
23.07.2012 14:35 19,7 C 49 % 0,0 l/m 8,4 km/h (2 Bft) S 180 8,7 C 19,8 C 5,5 km/h (1 Bft)
23.07.2012 14:40 19,7 C 48 % 0,0 l/m 8,4 km/h (2 Bft) SW 225 8,4 C 19,9 C 7,7 km/h (2 Bft)
23.07.2012 14:45 20,4 C 49 % 0,0 l/m 7,1 km/h (2 Bft) W-SW 247 9,3 C 21,0 C 10,3 km/h (2 Bft)
23.07.2012 14:50 20,5 C 48 % 0,0 l/m 7,6 km/h (2 Bft) W-NW 292 9,1 C 21,2 C 13,4 km/h (3 Bft)
23.07.2012 14:55 20,3 C 48 % 0,0 l/m 9,7 km/h (2 Bft) W-SW 247 8,9 C 20,2 C 9,2 km/h (2 Bft)
23.07.2012 15:00 20,0 C 48 % 0,0 l/m 10,5 km/h (2 Bft) W-SW 247 8,7 C 19,6 C 8,2 km/h (2 Bft)
23.07.2012 15:05 20,4 C 47 % 0,0 l/m 8,2 km/h (2 Bft) N-NW 337 8,7 C 20,6 C 12,9 km/h (3 Bft)
23.07.2012 15:10 20,1 C 48 % 0,0 l/m 7,7 km/h (2 Bft) W-NW 292 8,7 C 20,9 C 12,7 km/h (3 Bft)
23.07.2012 15:15 20,5 C 50 % 0,0 l/m 8,0 km/h (2 Bft) S-SW 202 9,7 C 20,9 C 5,8 km/h (2 Bft)
23.07.2012 15:20 20,4 C 48 % 0,0 l/m 7,7 km/h (2 Bft) W 270 9,0 C 21,0 C 10,0 km/h (2 Bft)
23.07.2012 15:25 20,3 C 48 % 0,0 l/m 10,0 km/h (2 Bft) W-NW 292 8,9 C 19,9 C 12,1 km/h (2 Bft)
23.07.2012 15:30 20,1 C 48 % 0,0 l/m 10,1 km/h (2 Bft) W-SW 247 8,7 C 19,7 C 5,6 km/h (1 Bft)
23.07.2012 15:35 20,2 C 49 % 0,0 l/m 8,5 km/h (2 Bft) W-NW 292 9,1 C 20,4 C 8,9 km/h (2 Bft)
23.07.2012 15:40 20,2 C 49 % 0,0 l/m 8,4 km/h (2 Bft) W-NW 292 9,1 C 20,8 C 12,6 km/h (3 Bft)
23.07.2012 15:45 20,6 C 48 % 0,0 l/m 8,0 km/h (2 Bft) W-SW 247 9,2 C 21,2 C 8,7 km/h (2 Bft)
23.07.2012 15:50 21,0 C 48 % 0,0 l/m 7,4 km/h (2 Bft) S 180 9,6 C 21,7 C 14,2 km/h (3 Bft)
23.07.2012 15:55 20,4 C 49 % 0,0 l/m 8,0 km/h (2 Bft) N 360 9,3 C 21,5 C 5,5 km/h (1 Bft)
23.07.2012 16:00 20,9 C 48 % 0,0 l/m 8,4 km/h (2 Bft) W 270 9,5 C 21,4 C 15,8 km/h (3 Bft)
23.07.2012 16:05 20,5 C 48 % 0,0 l/m 8,5 km/h (2 Bft) SO 135 9,1 C 21,2 C 13,5 km/h (3 Bft)
23.07.2012 16:10 20,5 C 49 % 0,0 l/m 9,2 km/h (2 Bft) W 270 9,4 C 20,9 C 6,3 km/h (2 Bft)
23.07.2012 16:15 19,8 C 51 % 0,0 l/m 8,4 km/h (2 Bft) S-SW 202 9,4 C 21,0 C 14,8 km/h (3 Bft)
23.07.2012 16:20 20,2 C 51 % 0,0 l/m 8,0 km/h (2 Bft) NW 315 9,7 C 21,0 C 9,8 km/h (2 Bft)
23.07.2012 16:25 20,6 C 49 % 0,0 l/m 7,4 km/h (2 Bft) S-SW 202 9,5 C 21,8 C 7,6 km/h (2 Bft)
23.07.2012 16:30 20,3 C 49 % 0,0 l/m 7,7 km/h (2 Bft) W 270 9,2 C 21,9 C 11,1 km/h (2 Bft)
23.07.2012 16:35 20,3 C 49 % 0,0 l/m 7,9 km/h (2 Bft) W-NW 292 9,2 C 21,6 C 11,6 km/h (2 Bft)
23.07.2012 16:40 20,1 C 51 % 0,0 l/m 8,2 km/h (2 Bft) O-SO 112 9,6 C 21,6 C 12,6 km/h (3 Bft)
23.07.2012 16:45 19,6 C 52 % 0,0 l/m 9,0 km/h (2 Bft) W-SW 247 9,5 C 20,9 C 11,4 km/h (2 Bft)
23.07.2012 16:50 19,5 C 54 % 0,0 l/m 8,7 km/h (2 Bft) S-SW 202 9,9 C 21,1 C 12,9 km/h (3 Bft)
23.07.2012 16:55 19,2 C 54 % 0,0 l/m 8,4 km/h (2 Bft) W-SW 247 9,7 C 21,3 C 10,1 km/h (2 Bft)
23.07.2012 17:00 19,0 C 55 % 0,0 l/m 9,0 km/h (2 Bft) N-NW 337 9,8 C 20,9 C 12,6 km/h (3 Bft)
23.07.2012 17:05 18,9 C 55 % 0,0 l/m 9,2 km/h (2 Bft) W 270 9,7 C 20,9 C 7,9 km/h (2 Bft)
23.07.2012 17:10 18,8 C 56 % 0,0 l/m 9,5 km/h (2 Bft) W-SW 247 9,8 C 20,8 C 7,1 km/h (2 Bft)
23.07.2012 17:15 18,9 C 55 % 0,0 l/m 8,4 km/h (2 Bft) W 270 9,7 C 21,1 C 19,5 km/h (3 Bft)
23.07.2012 17:20 18,7 C 57 % 0,0 l/m 8,4 km/h (2 Bft) W-NW 292 10,0 C 21,1 C 11,1 km/h (2 Bft)
23.07.2012 17:25 18,7 C 56 % 0,0 l/m 9,3 km/h (2 Bft) N-NO 22 9,7 C 20,2 C 9,3 km/h (2 Bft)
23.07.2012 17:30 18,8 C 57 % 0,0 l/m 9,5 km/h (2 Bft) W-NW 292 10,1 C 20,3 C 15,3 km/h (3 Bft)
23.07.2012 17:35 18,7 C 57 % 0,0 l/m 9,0 km/h (2 Bft) W-NW 292 10,0 C 20,7 C 15,6 km/h (3 Bft)
23.07.2012 17:40 18,7 C 58 % 0,0 l/m 8,5 km/h (2 Bft) N-NW 337 10,3 C 21,0 C 10,1 km/h (2 Bft)
23.07.2012 17:45 18,8 C 58 % 0,0 l/m 7,4 km/h (2 Bft) N-NW 337 10,4 C 21,7 C 7,2 km/h (2 Bft)
23.07.2012 17:50 18,7 C 58 % 0,0 l/m 7,2 km/h (2 Bft) N-NW 337 10,3 C 21,8 C 9,5 km/h (2 Bft)
23.07.2012 17:55 18,8 C 58 % 0,0 l/m 7,7 km/h (2 Bft) W-SW 247 10,4 C 21,6 C 5,3 km/h (1 Bft)
23.07.2012 18:00 18,5 C 58 % 0,0 l/m 7,7 km/h (2 Bft) W-NW 292 10,1 C 21,3 C 13,4 km/h (3 Bft)
23.07.2012 18:05 18,5 C 58 % 0,0 l/m 6,4 km/h (2 Bft) N 360 10,1 C 21,5 C 7,4 km/h (2 Bft)
23.07.2012 18:10 18,6 C 57 % 0,0 l/m 7,1 km/h (2 Bft) W-SW 247 9,9 C 21,5 C 11,1 km/h (2 Bft)
23.07.2012 18:15 18,6 C 58 % 0,0 l/m 7,7 km/h (2 Bft) N-NW 337 10,2 C 21,4 C 14,3 km/h (3 Bft)
23.07.2012 18:20 18,6 C 58 % 0,0 l/m 6,8 km/h (2 Bft) S 180 10,2 C 21,8 C 3,7 km/h (1 Bft)
23.07.2012 18:25 18,6 C 58 % 0,0 l/m 7,1 km/h (2 Bft) N-NO 22 10,2 C 21,8 C 15,1 km/h (3 Bft)
23.07.2012 18:30 18,4 C 58 % 0,0 l/m 6,9 km/h (2 Bft) W-NW 292 10,0 C 21,7 C 11,9 km/h (2 Bft)
23.07.2012 18:35 18,5 C 58 % 0,0 l/m 6,9 km/h (2 Bft) W-NW 292 10,1 C 21,6 C 9,7 km/h (2 Bft)
23.07.2012 18:40 18,5 C 58 % 0,0 l/m 6,1 km/h (2 Bft) W-NW 292 10,1 C 21,8 C 6,1 km/h (2 Bft)
23.07.2012 18:45 18,5 C 58 % 0,0 l/m 5,6 km/h (1 Bft) W 270 10,1 C 21,9 C 7,7 km/h (2 Bft)
23.07.2012 18:50 18,3 C 57 % 0,0 l/m 5,5 km/h (1 Bft) W 270 9,6 C 21,8 C 6,9 km/h (2 Bft)
23.07.2012 18:55 18,2 C 58 % 0,0 l/m 6,4 km/h (2 Bft) NO 45 9,8 C 21,4 C 7,1 km/h (2 Bft)
23.07.2012 19:00 18,1 C 58 % 0,0 l/m 6,0 km/h (2 Bft) W-SW 247 9,7 C 21,4 C 4,0 km/h (1 Bft)
23.07.2012 19:05 18,0 C 58 % 0,0 l/m 6,8 km/h (2 Bft) N-NW 337 9,6 C 21,1 C 12,2 km/h (2 Bft)
23.07.2012 19:10 17,9 C 59 % 0,0 l/m 6,9 km/h (2 Bft) W-NW 292 9,8 C 20,9 C 11,9 km/h (2 Bft)
23.07.2012 19:15 17,8 C 59 % 0,0 l/m 6,1 km/h (2 Bft) W 270 9,7 C 21,1 C 12,1 km/h (2 Bft)
23.07.2012 19:20 17,8 C 59 % 0,0 l/m 6,4 km/h (2 Bft) N-NW 337 9,7 C 20,9 C 11,6 km/h (2 Bft)
23.07.2012 19:25 17,8 C 59 % 0,0 l/m 6,0 km/h (2 Bft) N 360 9,7 C 20,8 C 0,0 km/h (0 Bft)
23.07.2012 19:30 17,8 C 60 % 0,0 l/m 4,8 km/h (1 Bft) SW 225 9,9 C 21,0 C 5,8 km/h (2 Bft)
23.07.2012 19:35 17,8 C 59 % 0,0 l/m 5,0 km/h (1 Bft) NW 315 9,7 C 20,8 C 4,5 km/h (1 Bft)
23.07.2012 19:40 17,7 C 59 % 0,0 l/m 5,5 km/h (1 Bft) W 270 9,6 C 20,8 C 8,0 km/h (2 Bft)
23.07.2012 19:45 17,5 C 59 % 0,0 l/m 4,7 km/h (1 Bft) W-NW 292 9,4 C 20,5 C 4,5 km/h (1 Bft)
23.07.2012 19:50 17,4 C 60 % 0,0 l/m 5,0 km/h (1 Bft) NO 45 9,6 C 20,3 C 7,6 km/h (2 Bft)
23.07.2012 19:55 17,3 C 60 % 0,0 l/m 4,8 km/h (1 Bft) N-NO 22 9,5 C 20,0 C 5,1 km/h (1 Bft)
23.07.2012 20:00 17,2 C 60 % 0,0 l/m 5,0 km/h (1 Bft) W-NW 292 9,4 C 19,8 C 6,4 km/h (2 Bft)
23.07.2012 20:05 17,0 C 61 % 0,0 l/m 5,0 km/h (1 Bft) W-NW 292 9,4 C 19,5 C 6,9 km/h (2 Bft)
23.07.2012 20:10 16,9 C 62 % 0,0 l/m 5,1 km/h (1 Bft) W-NW 292 9,6 C 19,2 C 4,5 km/h (1 Bft)
23.07.2012 20:15 16,7 C 62 % 0,0 l/m 3,7 km/h (1 Bft) W-NW 292 9,4 C 19,0 C 4,3 km/h (1 Bft)
23.07.2012 20:20 16,4 C 63 % 0,0 l/m 3,9 km/h (1 Bft) W 270 9,3 C 18,7 C 10,8 km/h (2 Bft)
23.07.2012 20:25 16,2 C 64 % 0,0 l/m 3,5 km/h (1 Bft) W 270 9,4 C 18,3 C 4,3 km/h (1 Bft)
23.07.2012 20:30 16,0 C 64 % 0,0 l/m 3,2 km/h (1 Bft) W-SW 247 9,2 C 18,0 C 4,2 km/h (1 Bft)
23.07.2012 20:35 15,9 C 66 % 0,0 l/m 2,4 km/h (1 Bft) S 180 9,6 C 17,7 C 0,0 km/h (0 Bft)
23.07.2012 20:40 15,6 C 66 % 0,0 l/m 1,6 km/h (1 Bft) W-SW 247 9,3 C 17,4 C 2,3 km/h (1 Bft)
23.07.2012 20:45 15,0 C 67 % 0,0 l/m 1,0 km/h (0 Bft) N 360 8,9 C 16,7 C 0,0 km/h (0 Bft)
23.07.2012 20:50 15,0 C 69 % 0,0 l/m 1,0 km/h (0 Bft) N-NO 22 9,4 C 16,4 C 1,8 km/h (1 Bft)
23.07.2012 20:55 14,7 C 69 % 0,0 l/m 0,6 km/h (0 Bft) NW 315 9,1 C 15,6 C 0,0 km/h (0 Bft)
23.07.2012 21:00 14,7 C 69 % 0,0 l/m 0,6 km/h (0 Bft) W-NW 292 9,1 C 15,1 C 0,0 km/h (0 Bft)
23.07.2012 21:05 14,5 C 70 % 0,0 l/m 0,8 km/h (0 Bft) NO 45 9,1 C 14,7 C 0,0 km/h (0 Bft)
23.07.2012 21:10 14,0 C 70 % 0,0 l/m 0,6 km/h (0 Bft) N 360 8,6 C 14,4 C 0,0 km/h (0 Bft)
23.07.2012 21:15 13,8 C 72 % 0,0 l/m 0,0 km/h (0 Bft) NO 45 8,8 C 13,8 C 0,0 km/h (0 Bft)
23.07.2012 21:20 13,6 C 74 % 0,0 l/m 0,0 km/h (0 Bft) N 360 9,1 C 13,6 C 0,0 km/h (0 Bft)
23.07.2012 21:25 13,0 C 73 % 0,0 l/m 0,2 km/h (0 Bft) O 90 8,3 C 13,2 C 2,1 km/h (1 Bft)
23.07.2012 21:30 13,1 C 74 % 0,0 l/m 0,6 km/h (0 Bft) N-NW 337 8,6 C 13,1 C 1,6 km/h (1 Bft)
23.07.2012 21:35 13,1 C 75 % 0,0 l/m 1,0 km/h (0 Bft) S 180 8,8 C 13,1 C 0,0 km/h (0 Bft)
23.07.2012 21:40 12,7 C 76 % 0,0 l/m 0,5 km/h (0 Bft) O-SO 112 8,6 C 12,9 C 0,0 km/h (0 Bft)
23.07.2012 21:45 12,8 C 77 % 0,0 l/m 0,5 km/h (0 Bft) NW 315 8,9 C 12,6 C 0,0 km/h (0 Bft)
23.07.2012 21:50 12,5 C 78 % 0,0 l/m 0,5 km/h (0 Bft) N-NO 22 8,8 C 12,6 C 0,0 km/h (0 Bft)
23.07.2012 21:55 12,7 C 78 % 0,0 l/m 0,2 km/h (0 Bft) N-NO 22 9,0 C 12,3 C 0,0 km/h (0 Bft)
23.07.2012 22:00 12,6 C 78 % 0,0 l/m 0,2 km/h (0 Bft) N 360 8,9 C 12,2 C 0,0 km/h (0 Bft)
23.07.2012 22:05 12,0 C 78 % 0,0 l/m 0,2 km/h (0 Bft) SO 135 8,3 C 11,9 C 0,0 km/h (0 Bft)
23.07.2012 22:10 11,7 C 78 % 0,0 l/m 0,0 km/h (0 Bft) O-NO 67 8,0 C 11,7 C 0,0 km/h (0 Bft)
23.07.2012 22:15 11,8 C 79 % 0,0 l/m 0,0 km/h (0 Bft) NO 45 8,3 C 11,4 C 0,0 km/h (0 Bft)
23.07.2012 22:20 11,8 C 79 % 0,0 l/m 0,0 km/h (0 Bft) N-NO 22 8,3 C 11,3 C 0,0 km/h (0 Bft)
23.07.2012 22:25 12,1 C 80 % 0,0 l/m 0,0 km/h (0 Bft) N-NO 22 8,8 C 11,2 C 0,0 km/h (0 Bft)
23.07.2012 22:30 12,0 C 80 % 0,0 l/m 0,0 km/h (0 Bft) NO 45 8,7 C 11,2 C 1,6 km/h (1 Bft)
23.07.2012 22:35 11,9 C 81 % 0,0 l/m 0,0 km/h (0 Bft) N 360 8,7 C 11,1 C 0,0 km/h (0 Bft)
23.07.2012 22:40 11,7 C 81 % 0,0 l/m 0,0 km/h (0 Bft) N-NO 22 8,5 C 11,0 C 0,0 km/h (0 Bft)
23.07.2012 22:45 11,2 C 81 % 0,0 l/m 0,0 km/h (0 Bft) N 360 8,1 C 10,7 C 0,0 km/h (0 Bft)
23.07.2012 22:50 10,9 C 82 % 0,0 l/m 0,0 km/h (0 Bft) N-NO 22 7,9 C 10,4 C 0,0 km/h (0 Bft)
23.07.2012 22:55 11,3 C 84 % 0,0 l/m 0,0 km/h (0 Bft) NO 45 8,7 C 10,3 C 0,0 km/h (0 Bft)
23.07.2012 23:00 11,0 C 83 % 0,0 l/m 0,0 km/h (0 Bft) N 360 8,2 C 10,2 C 0,0 km/h (0 Bft)
23.07.2012 23:05 11,2 C 84 % 0,0 l/m 0,0 km/h (0 Bft) N-NO 22 8,6 C 10,2 C 0,0 km/h (0 Bft)
23.07.2012 23:10 11,4 C 84 % 0,0 l/m 0,0 km/h (0 Bft) N 360 8,8 C 10,3 C 0,0 km/h (0 Bft)
23.07.2012 23:15 11,4 C 85 % 0,0 l/m 0,0 km/h (0 Bft) N-NO 22 9,0 C 10,2 C 0,0 km/h (0 Bft)
23.07.2012 23:20 11,5 C 85 % 0,0 l/m 0,0 km/h (0 Bft) NO 45 9,1 C 10,3 C 0,0 km/h (0 Bft)
23.07.2012 23:25 11,3 C 85 % 0,0 l/m 0,0 km/h (0 Bft) NO 45 8,9 C 10,4 C 0,0 km/h (0 Bft)
23.07.2012 23:30 10,8 C 84 % 0,0 l/m 0,0 km/h (0 Bft) NO 45 8,2 C 10,2 C 0,0 km/h (0 Bft)
23.07.2012 23:35 10,2 C 84 % 0,0 l/m 0,0 km/h (0 Bft) S 180 7,6 C 9,8 C 0,0 km/h (0 Bft)
23.07.2012 23:40 10,2 C 85 % 0,0 l/m 0,0 km/h (0 Bft) N-NO 22 7,8 C 9,7 C 0,0 km/h (0 Bft)
23.07.2012 23:45 10,2 C 86 % 0,0 l/m 0,0 km/h (0 Bft) W-NW 292 8,0 C 9,5 C 0,0 km/h (0 Bft)
23.07.2012 23:50 10,0 C 86 % 0,0 l/m 0,0 km/h (0 Bft) N-NW 337 7,8 C 9,5 C 0,0 km/h (0 Bft)
23.07.2012 23:55 10,3 C 87 % 0,0 l/m 0,0 km/h (0 Bft) NO 45 8,2 C 9,4 C 0,0 km/h (0 Bft)
_ Min-Zeit 05:55 15:05 - 23:55 - - 05:55 05:20 23:55
Minimum _ 3,0 C 47 % - 0,0 km/h (0 Bft) - - 1,8 C 2,3 C 0,0 km/h (0 Bft)
_ Max-Zeit 15:50 06:30 23:55 15:00 - - 17:55 18:45 14:10
Maximum _ 21,0 C 93 % 0,0 l/m 10,5 km/h
W-SW (2 Bft)
- - 10,4 C 21,9 C 22,4 km/h
SW (4 Bft)
Durchschnitt _ 12,9 C 70 % #0,0 l/m 3,8 km/h (1 Bft) W-NW - 7,1 C 13,3 C 5,2 km/h (1 Bft)